Regional Weather Roundup
Issued by NWS

Home | Current Version | Previous Version | Graphics & Text | Print | Product List | Glossary On
Versions: 1 2 3 4 5 6 7 8 9 10 11 12 13 14 15 16 17 18 19 20 21 22 23 24 25 26 27 28 29 30 31 32 33 34 35 36 37 38 39 40 41 42 43 44 45 46 47 48 49 50
000
ASUS43 KIND 191609
RWRIN

WEATHER ROUNDUP FOR INDIANA
NATIONAL WEATHER SERVICE INDIANAPOLIS IN
1200 PM EDT SAT APR 19 2014

NOTE: "FAIR" INDICATES FEW OR NO CLOUDS BELOW 12,000 FEET WITH NO
SIGNIFICANT WEATHER AND/OR OBSTRUCTIONS TO VISIBILITY.

* - STATION DOES NOT REPORT WEATHER SUCH AS PRECIPITATION OR FOG.

+ - STATION NOT QUALITY CONTROLLED BY THE NATIONAL WEATHER SERVICE.
    USE DATA WITH CAUTION...ESPECIALLY DEWPOINT AND RELATIVE
    HUMIDITY OBSERVATIONS.

INZ001>003-010>013-019-020-191700-
NORTHWEST INDIANA

CITY           SKY/WX    TMP DP  RH WIND       PRES   REMARKS
GARY /AIRPORT/ MOSUNNY   50  37  62 NE6       30.37F
LA PORTE +     SUNNY     53  37  53 E13       30.38F
MICHIGAN CITY+ SUNNY     55  36  47 E7        30.37F
MONTICELLO +   SUNNY     54  40  59 E8        30.36S
RENSSELAER +   SUNNY     55  37  50 E12G17    30.36S
VALPARAISO     SUNNY     56  37  49 E10       30.36F

$$

LMZ046-743>745-191700-
SOUTHERN LAKE MICHIGAN

STATION/POSITION TIME  TEMP WIND        PRES
                       AIR  DIR/SP/G
                 (UTC) (F)  (DEG/KT/KT) (MB)
MICHIGAN CITY    1600   52   80/  9/ 13   N/A

$$

INZ004-005-014>016-021>024-191700-
NORTH CENTRAL INDIANA

CITY           SKY/WX    TMP DP  RH WIND       PRES   REMARKS
ELKHART        SUNNY     50  36  57 E8        30.40S
GOSHEN         SUNNY     53  37  54 E13       30.40S
LOGANSPORT +   SUNNY     54  37  54 E15G22    30.37F
PERU/GRISSOM   SUNNY     55  41  60 E14       30.36F
ROCHESTER +    SUNNY     55  37  50 SE9       30.38S
SOUTH BEND     SUNNY     54  36  50 SE14G22   30.39F
WARSAW +       SUNNY     52  36  54 SE13      30.39S

$$

INZ006>009-017-018-025>027-191700-
NORTHEAST INDIANA

CITY           SKY/WX    TMP DP  RH WIND       PRES   REMARKS
ANGOLA *+      SUNNY     48  36  61 SE16      30.41F
AUBURN +       SUNNY     50  34  53 E13       30.42S
FORT WAYNE     SUNNY     51  36  56 E16G24    30.41S

$$

INZ028-029-035-036-043>045-051>053-191700-
WEST CENTRAL INDIANA

CITY           SKY/WX    TMP DP  RH WIND       PRES   REMARKS
GREENCASTLE +  SUNNY     61  43  51 E8        30.33S
LAFAYETTE      SUNNY     57  40  52 E15       30.35S
TERRE HAUTE    SUNNY     64  37  36 E9        30.32S

$$

INZ030>032-037>040-046>048-054>057-064-065-191700-
CENTRAL INDIANA

CITY           SKY/WX    TMP DP  RH WIND       PRES   REMARKS
ANDERSON       SUNNY     55  41  58 E17       30.37S
CP ATTERBURY + SUNNY     63  43  48 NE9       30.33F
COLUMBUS       SUNNY     63  41  45 NE9       30.32S
INDIANAPOLIS   MOSUNNY   59  42  53 E10       30.33F
-EAGLE CREEK   SUNNY     59  42  53 E8        30.33F
KOKOMO *+        N/A    N/A N/A N/A MISG        N/A
MARION +       SUNNY     52  38  57 E13       30.38R
MT COMFORT *+  SUNNY     59  45  58 E6        30.34S
SHELBYVILLE    SUNNY     63  43  48 E13       30.33S
ZIONSVILLE +   SUNNY     58  42  54 E10       30.35S

$$

INZ033-034-041-042-049-050-058-059-191700-
EAST CENTRAL INDIANA

CITY           SKY/WX    TMP DP  RH WIND       PRES   REMARKS
MUNCIE         SUNNY     55  40  56 E14       30.36F

$$

INZ060-061-067>069-081>083-085>088-191700-
SOUTHWEST INDIANA

CITY           SKY/WX    TMP DP  RH WIND       PRES   REMARKS
EVANSVILLE     SUNNY     68  42  38 NE9       30.28F
HUNTINGBURG *+ SUNNY     66  45  45 E6        30.29S
WASHINGTON +   SUNNY     66  42  40 E10       30.29F

$$

INZ062-063-066-070>080-084-089>092-191700-
SOUTH CENTRAL AND SOUTHEAST INDIANA

CITY           SKY/WX    TMP DP  RH WIND       PRES   REMARKS
BEDFORD +      SUNNY     66  28  24 E14       30.30
BLOOMINGTON    SUNNY     65  35  33 E10G16    30.31S

$$




USA.gov is the U.S. government's official web portal to all federal, state and local government web resources and services.